STARLINK-30514, 58028

Orbit data source: Space-Track

STARLINK-30514, 58028 is a payload satellite owned by SpaceX/Seattle (US) in LEO that was launched on Mon, 09 Oct 2023 UTC via an FALCON 9 launch vehicle from the Air Force Western Test Range (AFWTR). Payload-class satellites include a variety of spacecraft equipped with specific instruments for various scientific and technological missions. These include communications satellites like Starlink; space stations such as the ISS; scientific satellites like the Hubble; Earth observation satellites from companies like Planet Labs, Umbra, and HawkEye 360; GPS; miniature CubeSats for education and research; and military/defense satellites.

Loading next visibility...
Identifier
58028, 2023-156A
Orbit
LEO
Country
Flag of USUS
Related business
Manufacturer
SpaceX/Seattle
Mission
Operational Commercial Communications
Bus & Motor
STARLINK V2M, Unknown motor
Mass
730 kg wet, ~700 kg dry
Launch date (UTC)
2023-10-09 (3 years ago)
Launch vehicle
FALCON 9
Launch site
Air Force Western Test Range (AFWTR)
Object type
Payload
Rocket body
Debris
Shape & HBR
Box + 2 Pan, 17.7 m
Radar Cross Section
33.884 m², Large (>1 m²)

Expand to show TLE details & history
Last TLE update: 3 days ago

TLE from 3 days ago
0 STARLINK-30514
1 58028U 23156A   26170.80780363 -.00000114  00000-0  82720-5 0  9992
2 58028  53.1613 323.8385 0001599  71.3005 288.8169 15.30193685151950
Epoch: 2026-06-19T19:23Z
TLE epoch observation values (Epoch: 2026-06-19T19:23:14.233Z)
Latitude
-0.00005°
Longitude
124.99769°
Altitude
475.78 km
Speed
7.629 km/s
True Right ascension
21h 35m 21s
True Declination
0° 00' 00"
Sunlit
Object was in full shadow at epoch
Visualization orbit readout
Latitude
Unknown
Longitude
Unknown
Altitude
Unknown
Speed
Unknown
Apparent Right ascension
Unknown
Apparent Declination
Unknown
Sunlit
N/A
Visualization observer readout
Local Sidereal Time
21:41:13
Azimuth
Unknown
Elevation
Unknown
Doppler factor
Unknown
Orbital elements
Apogee altitude
476.586 km
Perigee altitude
474.394 km
Semi-major axis
6,853.627 km
Eccentricity
0.00016
Inclination
53.1613°
RAAN
323.8385°
Arg. of periapsis
71.3005°
True anomaly
288.79955°
Mean anomaly
288.8169°
Eccentric anomaly
288.80823°
Mean motion
3.82527 °/min
Orbital period
94.11 mins
BSTAR
0.000008272
Loading maneuver chart data...
Computing Atmospheric mass density...
Loading historical data...
Loading historical data...
Loading historical data...
Loading historical data...
Loading historical data...
Loading historical data...
Loading historical data...

Documentation

Showing up to 5 results
|